Location: Shenandoah County Park
(38.9356°N, 78.4524°W)
Time: 02:39:49
(UTC-05:00)

A-11 Canister half - Pass Details

Date: 13 December 2023
Orbit: 1526 x 1682 km, 47.3° (Epoch: 01 March)

Event Time Altitude Azimuth Distance (km) Brightness Sun altitude
Rises 20:13:56 0° 284° (WNW) 4,932 12.5 -38.4°
Reaches altitude 10° 20:17:15 10° 289° (WNW) 3,946 11.8 -39.0°
Enters shadow 20:26:01 52° 344° (NNW) 2,007 9.5 -40.7°
